When you browse on this site, cookies collect data to enhance your experience and personalize the content and advertising you see.
Visit our Privacy Policy to learn more. By continuing to use the site, you agree to this use of cookies and data.
  • In Hungary
  • List of Countries
  • For 7 days
  • Water Temperature
  • Satellite Maps
  • Weather Map
  • News
  • Weather Widgets
  • user-avatar
    Login

    Hourly Weather Orsk

    Today, 25 May, Saturday

    Time Temperature Precipitation Wind Pressure Humidity
    00:00 +14°C° 0 mm 2 mps 751 mmHg 67%
    01:00 +14°C° 0 mm 2 mps 751 mmHg 69%
    02:00 +14°C° 0 mm 2 mps 751 mmHg 75%
    03:00 +12°C° 0 mm 3 mps 751 mmHg 81%
    04:00 +11°C° 0 mm 3 mps 751 mmHg 87%
    05:00 +13°C° 0 mm 3 mps 752 mmHg 84%
    06:00 +14°C° 0 mm 3 mps 752 mmHg 81%
    07:00 +16°C° 0 mm 3 mps 752 mmHg 78%
    08:00 +18°C° 0.1 mm 4 mps 752 mmHg 74%
    09:00 +19°C° 0.1 mm 4 mps 752 mmHg 69%
    10:00 +20°C° 0.1 mm 4 mps 752 mmHg 65%
    11:00 +21°C° 0.2 mm 4 mps 752 mmHg 62%
    12:00 +21°C° 0.2 mm 4 mps 752 mmHg 58%
    13:00 +22°C° 0.2 mm 4 mps 752 mmHg 55%
    14:00 +22°C° 0.1 mm 4 mps 752 mmHg 54%
    15:00 +22°C° 0.1 mm 4 mps 752 mmHg 53%
    16:00 +22°C° 0.1 mm 4 mps 752 mmHg 52%
    17:00 +20°C° 0 mm 3 mps 752 mmHg 58%
    18:00 +19°C° 0 mm 3 mps 752 mmHg 65%
    19:00 +18°C° 0 mm 3 mps 752 mmHg 71%
    20:00 +16°C° 0 mm 3 mps 753 mmHg 76%
    21:00 +14°C° 0 mm 2 mps 753 mmHg 80%
    22:00 +13°C° 0 mm 2 mps 753 mmHg 85%
    23:00 +12°C° 0 mm 2 mps 753 mmHg 87%

    Tomorrow, 26 May, Sunday

    Time Temperature Precipitation Wind Pressure Humidity
    00:00 +11°C° 0 mm 1 mps 753 mmHg 90%
    01:00 +10°C° 0 mm 1 mps 753 mmHg 93%
    02:00 +10°C° 0 mm 1 mps 753 mmHg 94%
    03:00 +8°C° 0 mm 2 mps 753 mmHg 95%
    04:00 +8°C° 0 mm 2 mps 753 mmHg 95%
    05:00 +10°C° 0 mm 2 mps 753 mmHg 90%
    06:00 +11°C° 0 mm 3 mps 753 mmHg 85%
    07:00 +13°C° 0 mm 3 mps 753 mmHg 79%
    08:00 +14°C° 0 mm 3 mps 753 mmHg 73%
    09:00 +17°C° 0 mm 4 mps 753 mmHg 66%
    10:00 +19°C° 0 mm 4 mps 752 mmHg 59%
    11:00 +20°C° 0 mm 4 mps 752 mmHg 56%
    12:00 +21°C° 0 mm 5 mps 752 mmHg 53%
    13:00 +22°C° 0 mm 5 mps 751 mmHg 49%
    14:00 +22°C° 0 mm 5 mps 751 mmHg 50%
    15:00 +23°C° 0 mm 5 mps 751 mmHg 50%
    16:00 +23°C° 0 mm 5 mps 750 mmHg 51%
    17:00 +21°C° 0 mm 4 mps 750 mmHg 57%
    18:00 +20°C° 0 mm 3 mps 750 mmHg 63%
    19:00 +19°C° 0 mm 2 mps 750 mmHg 69%
    20:00 +18°C° 0 mm 2 mps 750 mmHg 72%
    21:00 +17°C° 0 mm 2 mps 751 mmHg 75%
    22:00 +15°C° 0 mm 2 mps 751 mmHg 77%
    23:00 +15°C° 0 mm 2 mps 750 mmHg 79%

    Day after tomorrow, 27 May, Monday

    Time Temperature Precipitation Wind Pressure Humidity
    00:00 +15°C° 0 mm 2 mps 750 mmHg 81%
    01:00 +13°C° 0 mm 3 mps 750 mmHg 82%
    02:00 +13°C° 0 mm 3 mps 750 mmHg 82%
    03:00 +13°C° 0 mm 3 mps 749 mmHg 82%
    04:00 +13°C° 0 mm 3 mps 749 mmHg 82%
    05:00 +14°C° 0 mm 3 mps 749 mmHg 78%
    06:00 +17°C° 0 mm 4 mps 749 mmHg 74%
    07:00 +19°C° 0 mm 5 mps 749 mmHg 69%
    08:00 +20°C° 0 mm 5 mps 749 mmHg 66%
    09:00 +22°C° 0 mm 5 mps 749 mmHg 62%
    10:00 +23°C° 0 mm 5 mps 749 mmHg 58%
    11:00 +23°C° 0.5 mm 5 mps 748 mmHg 61%
    12:00 +23°C° 0.5 mm 5 mps 748 mmHg 63%
    13:00 +23°C° 0.5 mm 5 mps 748 mmHg 65%
    14:00 +23°C° 0.9 mm 5 mps 748 mmHg 69%
    15:00 +22°C° 0.9 mm 5 mps 748 mmHg 72%
    16:00 +22°C° 0.9 mm 5 mps 748 mmHg 76%
    17:00 +21°C° 0.3 mm 4 mps 748 mmHg 78%
    18:00 +20°C° 0.3 mm 3 mps 748 mmHg 81%
    19:00 +19°C° 0.3 mm 2 mps 748 mmHg 84%
    20:00 +19°C° 0 mm 1 mps 748 mmHg 86%
    21:00 +18°C° 0 mm 1 mps 748 mmHg 89%
    22:00 +16°C° 0 mm 1 mps 749 mmHg 91%
    23:00 +15°C° 0 mm 1 mps 748 mmHg 92%

    28 May, Tuesday

    Time Temperature Precipitation Wind Pressure Humidity
    00:00 +14°C° 0 mm 0 mps 748 mmHg 93%
    01:00 +13°C° 0 mm 0 mps 748 mmHg 93%
    02:00 +14°C° 0 mm 1 mps 748 mmHg 93%
    03:00 +15°C° 0 mm 1 mps 748 mmHg 93%
    04:00 +15°C° 0 mm 1 mps 748 mmHg 92%
    05:00 +15°C° 1 mm 1 mps 748 mmHg 93%
    06:00 +15°C° 1 mm 1 mps 748 mmHg 94%
    07:00 +15°C° 1 mm 2 mps 748 mmHg 95%
    08:00 +15°C° 1.5 mm 2 mps 748 mmHg 95%
    09:00 +14°C° 1.5 mm 2 mps 748 mmHg 96%
    10:00 +13°C° 1.5 mm 3 mps 748 mmHg 96%
    11:00 +14°C° 1.1 mm 3 mps 748 mmHg 95%
    12:00 +14°C° 1.1 mm 4 mps 748 mmHg 94%
    13:00 +14°C° 1.1 mm 4 mps 748 mmHg 93%
    14:00 +13°C° 1.3 mm 4 mps 748 mmHg 94%
    15:00 +13°C° 1.3 mm 4 mps 748 mmHg 94%
    16:00 +13°C° 1.3 mm 4 mps 748 mmHg 95%
    17:00 +13°C° 0.6 mm 4 mps 748 mmHg 95%
    18:00 +13°C° 0.6 mm 3 mps 749 mmHg 96%
    19:00 +13°C° 0.6 mm 3 mps 749 mmHg 96%
    20:00 +12°C° 0.2 mm 3 mps 749 mmHg 96%
    21:00 +12°C° 0.2 mm 4 mps 750 mmHg 96%
    22:00 +12°C° 0.2 mm 4 mps 751 mmHg 95%
    23:00 +11°C° 0.1 mm 4 mps 751 mmHg 94%

    29 May, Wednesday

    Time Temperature Precipitation Wind Pressure Humidity
    00:00 +9°C° 0.1 mm 5 mps 751 mmHg 93%
    01:00 +9°C° 0.1 mm 5 mps 752 mmHg 92%
    02:00 +8°C° 0 mm 4 mps 752 mmHg 92%
    03:00 +7°C° 0 mm 4 mps 753 mmHg 91%
    04:00 +6°C° 0 mm 4 mps 753 mmHg 91%
    05:00 +7°C° 0 mm 4 mps 754 mmHg 87%
    06:00 +8°C° 0 mm 4 mps 755 mmHg 83%
    07:00 +9°C° 0 mm 5 mps 756 mmHg 79%
    08:00 +10°C° 0 mm 5 mps 756 mmHg 73%
    09:00 +12°C° 0 mm 5 mps 756 mmHg 66%
    10:00 +13°C° 0 mm 5 mps 756 mmHg 60%
    11:00 +14°C° 0 mm 5 mps 757 mmHg 58%
    12:00 +14°C° 0 mm 5 mps 757 mmHg 56%
    13:00 +15°C° 0 mm 5 mps 757 mmHg 54%
    14:00 +15°C° 0 mm 4 mps 757 mmHg 53%
    15:00 +15°C° 0 mm 4 mps 758 mmHg 53%
    16:00 +17°C° 0 mm 4 mps 758 mmHg 52%
    17:00 +16°C° 0 mm 3 mps 758 mmHg 57%
    18:00 +14°C° 0 mm 3 mps 759 mmHg 63%
    19:00 +14°C° 0 mm 2 mps 759 mmHg 69%
    20:00 +12°C° 0 mm 2 mps 760 mmHg 70%
    21:00 +10°C° 0 mm 2 mps 760 mmHg 71%
    22:00 +9°C° 0 mm 2 mps 761 mmHg 72%
    23:00 +8°C° 0 mm 2 mps 761 mmHg 73%

    30 May, Thursday

    Time Temperature Precipitation Wind Pressure Humidity
    00:00 +8°C° 0 mm 2 mps 761 mmHg 73%
    01:00 +8°C° 0 mm 1 mps 761 mmHg 74%
    02:00 +7°C° 0 mm 1 mps 761 mmHg 76%
    03:00 +7°C° 0 mm 1 mps 761 mmHg 79%
    04:00 +5°C° 0 mm 0 mps 762 mmHg 81%
    05:00 +8°C° 0 mm 1 mps 761 mmHg 76%
    06:00 +10°C° 0 mm 1 mps 761 mmHg 70%
    07:00 +12°C° 0 mm 1 mps 761 mmHg 65%
    08:00 +13°C° 0 mm 1 mps 761 mmHg 60%
    09:00 +15°C° 0 mm 1 mps 761 mmHg 56%
    10:00 +18°C° 0 mm 1 mps 760 mmHg 51%
    11:00 +18°C° 0 mm 1 mps 760 mmHg 49%
    12:00 +19°C° 0 mm 1 mps 759 mmHg 46%
    13:00 +20°C° 0 mm 1 mps 759 mmHg 44%
    14:00 +19°C° 0 mm 2 mps 758 mmHg 44%
    15:00 +20°C° 0 mm 2 mps 758 mmHg 44%
    16:00 +20°C° 0 mm 2 mps 758 mmHg 44%
    17:00 +19°C° 0 mm 2 mps 757 mmHg 51%
    18:00 +18°C° 0 mm 2 mps 757 mmHg 59%
    19:00 +17°C° 0 mm 2 mps 757 mmHg 66%
    20:00 +15°C° 0 mm 2 mps 757 mmHg 69%
    21:00 +14°C° 0 mm 2 mps 757 mmHg 71%
    22:00 +12°C° 0 mm 2 mps 757 mmHg 74%
    23:00 +12°C° 0 mm 2 mps 757 mmHg 73%
    Show more